RH
36 27 41 51 97 91 74 74 83 72 48 52 57 59 64 61 63 74 52 51 45 41 51 53 47 50 50 40 24 29 29 25 20 35 50 51 49 41 40 45 53 56 47 41 48 58 51 45 51
32 25 16 23 100 66 65 78 63 71 63 56 64 55 58 50 44 47 60 62 57 44 39 43 46 50 50 50 29 22 25 24 22 41 43 43 42 36 37 43 41 40 50 49 40 47 46 50 55
32 22 19 16 51 86 45 91 63 67 54 29 44 70 62 47 47 50 60 60 62 55 45 43 46 48 48 54 39 46 48 31 24 34 42 42 40 35 37 38 37 43 48 42 61 53 58 53 55
19 28 46 98 51 25 54 56 67 42 43 31 20 31 29 40 50 46 58 60 65 67 52 42 41 41 44 51 50 43 33 32 41 53 53 68 52 40 38 47 44 40 49 50 48 52 57 44 52
27 86 98 85 41 20 13 28 90 44 24 22 24 29 33 38 35 45 54 57 62 75 72 68 66 65 65 65 57 50 52 55 39 32 32 43 59 52 34 41 38 38 50 48 46 49 48 42 41
48 97 58 60 50 67 20 19 54 24 21 29 24 24 32 29 39 44 46 53 60 74 80 79 78 76 74 74 72 62 55 53 55 53 45 36 35 34 37 34 38 45 47 50 56 56 65 61 66
34 97 94 90 88 52 14 17 37 13 18 21 22 27 32 39 44 46 49 55 61 65 76 83 80 80 80 80 79 77 70 68 66 63 59 60 62 58 51 53 54 53 59 67 58 60 65 87 83
53 98 95 78 74 83 13 7 25 12 18 21 26 31 42 45 48 53 50 47 58 61 66 66 67 75 75 78 79 79 78 78 75 76 75 71 68 70 62 58 57 51 50 53 57 63 71 90 83
66 98 98 74 100 92 7 38 54 10 13 19 26 28 35 38 39 43 37 37 42 49 56 61 65 67 70 69 68 70 70 75 73 83 82 74 73 70 66 69 75 74 75 65 64 67 79 86 77
53 96 60 62 76 48 8 6 46 21 11 16 19 22 24 24 27 30 32 36 43 45 46 50 52 58 60 57 56 61 65 62 57 70 77 72 71 67 66 71 70 72 71 63 67 70 79 86 80
90 75 68 57 35 20 7 4 5 61 18 20 18 19 22 23 25 27 28 33 42 45 41 42 41 47 53 52 54 55 48 42 50 52 55 66 72 70 66 66 72 73 68 76 76 72 74 80 80
96 73 71 64 46 20 10 4 6 38 7 16 10 15 18 19 24 22 24 28 36 45 42 32 41 41 43 50 40 39 48 44 47 54 58 63 67 70 67 69 73 73 58 63 68 73 74 86 84
60 66 62 50 42 15 7 5 4 4 4 5 6 7 11 14 17 19 16 19 28 38 34 32 42 45 58 71 58 44 42 44 61 65 68 70 66 74 68 68 71 67 59 63 72 73 78 79 75
62 54 44 29 23 16 7 7 19 5 5 5 6 8 11 15 19 20 20 21 24 29 32 28 31 38 64 72 65 50 43 63 71 65 79 97 74 75 73 70 71 66 64 63 70 71 68 76 79
62 53 50 35 25 19 32 9 8 8 6 7 10 14 18 20 21 20 18 17 12 14 19 19 17 17 34 72 64 61 65 65 63 69 66 69 72 73 70 77 70 62 64 63 64 70 73 76 76
83 97 98 41 43 34 28 54 22 11 12 17 20 23 25 25 25 25 27 26 21 12 11 10 9 8 10 45 56 58 58 64 63 72 78 85 75 82 92 94 81 78 81 72 71 73 74 75 79
98 92 96 76 53 48 50 82 25 19 18 18 20 25 24 37 33 33 40 43 40 34 28 31 32 24 14 13 16 23 24 33 54 65 71 80 86 85 87 94 86 90 92 89 75 82 79 75 84
97 94 91 99 61 58 47 56 51 47 24 26 26 27 21 32 42 49 42 42 47 47 45 50 54 56 50 48 48 46 48 52 54 63 74 82 74 91 89 94 95 96 99 93 86 88 93 93 92
95 79 96 89 69 56 61 69 63 58 44 49 40 33 39 36 30 41 41 41 43 38 45 51 41 36 32 28 24 34 38 37 34 35 44 52 58 66 80 86 95 95 96 91 86 83 94 95 96
88 97 95 84 69 63 65 97 73 57 54 53 48 46 46 42 44 42 49 39 42 47 40 32 35 38 43 40 42 54 61 68 72 75 78 73 65 56 53 74 86 89 91 90 89 84 87 90 92
89 94 86 94 64 69 91 70 93 58 47 47 44 45 44 47 49 46 50 56 59 47 43 36 31 39 39 47 50 44 57 66 70 69 77 62 60 65 70 60 71 78 78 81 83 96 96 95 98
91 79 76 60 66 96 86 96 98 72 45 41 42 43 45 48 61 54 50 56 69 74 57 40 45 52 53 50 42 53 61 68 68 73 61 41 53 66 64 72 69 74 87 80 96 97 94 82 77
95 70 80 58 59 95 78 98 70 99 55 43 41 39 50 60 59 69 60 57 61 50 65 69 68 67 48 54 40 52 66 38 27 33 27 23 47 56 89 78 72 77 89 96 85 46 60 58 65
35 38 64 67 87 93 96 87 94 95 83 42 46 37 50 65 62 62 68 58 67 74 54 71 79 87 82 60 36 48 31 25 8 8 11 24 21 40 77 68 60 39 51 58 55 67 56 57 77
25 49 87 86 98 98 65 58 82 98 68 44 40 37 60 68 71 62 60 61 73 64 64 46 77 85 65 44 37 50 42 22 5 4 5 5 7 11 61 47 39 36 40 43 72 59 39 50 52
69 81 71 89 92 93 74 96 93 80 75 44 40 44 54 62 53 74 68 71 70 81 76 50 63 69 73 26 36 55 57 10 7 6 5 5 5 4 15 19 28 27 33 38 24 24 29 41 30
82 76 73 66 55 72 53 82 75 83 95 73 58 50 39 38 59 63 65 70 84 83 50 24 34 52 44 15 31 42 12 10 11 9 7 4 4 5 4 4 4 4 4 4 5 7 16 12 12
29 75 74 66 67 60 79 64 69 58 96 52 67 50 33 44 35 35 34 33 39 40 46 30 25 31 20 12 11 16 12 10 12 11 10 7 6 7 6 6 6 6 6 6 6 8 9 9 8
28 37 50 77 87 74 50 67 82 92 74 61 84 62 42 37 45 43 42 35 28 32 39 39 23 19 8 10 17 16 14 12 14 12 12 11 11 10 11 13 15 16 16 17 18 18 18 16 13
55 52 62 65 62 54 56 52 57 75 78 56 72 63 54 49 44 48 43 47 45 28 32 26 16 12 10 9 16 19 21 19 13 13 18 19 19 19 20 20 20 21 21 21 19 17 14 11 10
Wind_Speed
10 12 11 11 3 14 7 6 4 7 4 2 2 3 4 4 1 2 3 3 6 5 6 7 9 10 10 10 9 8 9 8 7 9 10 10 10 10 8 8 6 5 6 4 4 4 3 4 5
9 11 13 12 15 8 10 8 5 5 2 3 3 3 3 2 2 1 1 1 5 6 5 5 8 8 9 9 10 9 9 8 8 9 8 8 8 8 7 7 6 5 4 2 1 1 2 3 4
9 10 8 11 15 11 9 3 7 4 2 4 3 6 5 2 1 2 1 1 2 4 4 5 6 6 7 9 9 10 10 9 9 9 8 7 7 7 6 5 4 3 2 0 1 1 2 3 3
9 10 5 16 14 7 6 4 5 5 4 3 1 2 3 3 2 1 0 1 2 3 4 4 6 6 7 7 8 9 9 8 8 8 8 6 6 7 6 5 4 3 1 1 2 3 3 4 4
10 12 25 12 19 9 7 4 8 7 5 3 2 2 3 3 3 2 1 1 3 3 3 3 5 4 5 5 6 7 7 7 7 6 5 5 5 4 3 2 2 2 1 1 2 4 5 6 6
11 13 12 17 19 13 10 9 8 8 5 3 1 3 4 3 3 3 3 2 2 4 3 3 3 3 2 2 3 4 4 5 5 5 5 4 3 2 1 1 1 2 1 1 2 4 5 6 8
13 3 6 8 8 13 9 7 3 6 2 1 2 5 4 4 3 3 3 2 2 2 2 4 4 4 3 2 3 3 3 2 1 1 1 1 1 1 1 2 3 3 3 3 4 6 7 8 10
9 6 18 14 15 9 10 7 3 3 2 3 5 5 4 4 4 4 3 2 2 1 1 2 2 3 2 1 3 2 2 1 1 1 2 3 4 5 5 4 5 5 5 4 4 6 8 10 7
8 26 9 9 15 16 13 6 4 6 3 1 3 3 3 5 5 4 5 4 4 2 2 2 2 2 2 2 3 4 3 2 2 2 3 5 7 8 8 7 7 6 7 7 6 7 5 7 6
13 13 13 11 7 6 11 9 6 6 3 2 3 2 3 4 5 5 4 2 4 3 2 2 2 3 3 3 4 4 3 3 4 4 7 6 9 9 9 9 10 8 7 7 7 7 7 7 7
6 8 11 13 12 10 11 12 7 5 3 5 4 3 3 4 4 5 5 4 3 3 3 2 1 2 3 4 6 5 4 4 4 6 7 7 7 8 9 10 12 8 7 9 9 8 6 8 7
6 8 12 15 12 12 11 10 11 8 3 4 4 3 3 3 3 3 3 1 1 2 3 4 3 2 2 4 6 7 6 4 6 7 8 10 9 9 7 6 7 10 8 8 8 8 7 6 6
6 7 15 16 9 10 11 14 10 7 5 5 6 6 4 4 3 3 3 1 1 1 3 4 3 3 3 4 5 7 7 6 5 7 7 10 10 9 8 8 9 10 10 10 8 7 7 7 9
5 11 13 11 7 10 11 13 6 8 6 7 8 9 8 7 6 6 5 2 0 1 1 2 2 3 3 2 2 2 3 5 5 6 7 7 6 10 9 8 9 10 10 11 11 10 10 11 11
14 15 13 8 9 9 10 12 17 10 9 10 11 10 9 7 6 6 5 3 2 1 1 1 1 1 1 3 1 2 4 6 7 8 8 10 8 8 9 9 9 10 11 13 13 13 13 13 14
18 7 8 8 8 8 8 12 10 11 13 12 10 9 7 5 4 4 3 3 2 3 3 3 3 3 2 1 2 4 6 7 9 11 11 13 11 11 14 13 11 12 10 12 14 14 15 14 14
12 10 10 12 9 7 8 6 7 8 8 8 6 6 6 4 3 3 3 3 3 2 3 4 5 6 6 7 7 8 10 12 12 12 14 14 18 21 26 21 16 14 13 11 14 15 16 15 15
8 8 11 6 6 10 10 11 6 6 7 7 7 6 6 5 4 2 1 2 4 3 2 5 6 7 9 11 12 12 11 10 9 11 12 15 19 12 9 10 19 18 12 14 17 19 19 18 18
3 3 10 5 3 9 11 14 16 8 7 5 6 7 8 7 4 2 2 3 1 3 4 6 8 9 9 9 9 9 11 12 12 12 14 16 20 20 17 15 15 15 12 15 17 20 22 23 23
2 8 6 10 3 5 7 3 7 8 9 7 5 5 6 5 4 2 4 6 3 2 2 4 7 7 8 9 8 10 11 11 16 18 20 22 22 22 17 18 16 17 16 16 18 20 22 26 23
5 8 15 13 6 5 2 3 3 6 7 6 6 7 9 8 6 6 8 9 6 4 2 2 5 8 11 11 10 9 13 14 17 20 17 21 24 27 29 20 17 14 15 17 19 22 20 12 12
10 18 15 8 8 16 3 15 14 7 10 9 9 10 11 12 13 8 9 9 9 10 6 4 6 7 8 12 13 14 14 16 17 14 11 25 29 27 31 29 19 16 17 15 18 15 12 16 20
15 21 13 8 8 5 9 12 29 5 6 8 12 17 15 14 11 12 11 6 9 12 11 8 7 5 8 12 14 13 13 11 14 16 17 23 27 27 18 18 13 20 23 21 10 16 19 19 20
15 8 2 6 6 11 1 2 21 7 6 13 14 16 13 14 14 12 11 6 8 13 15 10 7 5 8 9 12 6 5 15 15 16 16 17 22 27 12 8 7 5 4 4 9 16 17 18 16
13 9 7 7 12 20 8 7 17 4 12 16 17 15 13 8 10 14 11 6 9 13 14 10 5 4 4 7 9 4 9 14 15 14 16 16 16 18 9 7 4 4 6 11 19 16 18 17 17
17 15 10 10 16 17 18 5 15 13 19 16 14 13 13 11 15 15 11 9 10 12 14 7 5 3 6 8 9 8 10 11 12 13 13 15 14 10 9 9 8 7 8 11 13 16 18 19 20
18 17 16 14 11 13 12 12 7 9 1 13 11 9 9 9 10 10 8 8 10 12 7 7 6 4 5 6 7 9 9 12 14 14 14 14 14 13 12 10 10 12 14 15 16 16 17 20 20
20 13 15 13 12 13 9 3 12 16 7 22 13 8 5 2 5 8 10 9 7 7 3 7 6 7 10 10 7 9 11 13 14 15 15 15 15 15 13 13 13 13 14 16 18 18 19 21 23
21 25 19 16 15 7 7 16 13 6 20 17 12 12 7 5 7 7 9 11 9 6 6 9 8 9 11 10 9 11 13 14 15 16 15 14 14 15 15 15 15 16 17 20 23 26 26 26 27
23 19 20 16 13 10 12 11 13 12 17 20 16 16 12 11 9 8 11 11 9 7 7 9 10 12 13 13 14 15 14 14 14 14 13 14 16 18 20 21 23 25 26 27 29 30 30 30 30
Wind_Direction
18 21 26 4 82 51 19 341 336 5 301 201 145 167 197 175 190 145 127 100 90 85 96 97 95 86 84 85 95 106 119 121 127 129 132 128 119 121 127 131 131 113 106 92 72 56 46 40 44
23 29 34 19 354 3 343 360 310 317 271 226 241 197 212 208 214 140 85 105 99 89 87 92 96 93 92 95 96 104 111 113 119 130 126 119 123 119 126 134 138 126 104 100 75 48 30 39 30
1 16 22 30 19 29 6 290 326 321 293 252 239 210 217 206 198 193 164 291 83 89 92 102 102 99 95 93 102 113 119 119 128 129 129 125 119 111 120 122 123 118 125 156 247 281 339 3 359
3 353 37 32 2 5 356 327 333 343 313 325 59 186 212 193 193 171 72 8 60 86 89 102 102 103 101 104 109 112 114 116 128 133 141 139 132 125 125 133 129 132 88 260 266 299 310 307 317
21 351 42 13 340 347 353 348 346 345 338 3 72 200 145 157 177 154 150 69 89 78 81 82 97 103 104 107 117 119 117 116 119 134 143 150 146 141 145 145 135 121 172 286 322 319 313 311 309
24 6 350 357 349 35 352 34 354 348 339 325 10 138 135 154 156 148 154 125 106 101 89 89 96 101 98 118 127 135 139 140 133 133 137 143 157 157 182 237 228 222 239 302 319 322 318 333 317
24 327 1 4 32 331 4 25 356 334 354 38 120 116 129 124 135 127 122 110 82 111 120 98 107 112 109 121 100 154 190 175 140 171 182 147 232 251 251 256 275 264 279 283 324 327 322 308 294
26 295 33 5 333 21 3 16 49 50 39 97 110 121 131 133 116 108 68 62 62 99 115 106 149 169 156 140 148 159 203 228 247 281 271 249 247 256 246 254 271 271 271 280 304 315 326 329 289
33 6 28 350 331 345 10 38 29 66 52 96 106 130 141 117 94 78 55 57 74 88 110 125 143 176 192 219 224 228 236 258 251 271 258 255 269 257 247 250 249 269 292 295 296 304 329 338 324
36 343 336 351 347 360 7 34 69 73 120 131 124 114 93 97 87 79 60 51 86 82 73 100 139 181 210 240 259 260 246 267 280 279 262 261 274 249 239 242 255 269 278 287 292 299 309 309 331
356 347 337 344 353 1 16 28 54 38 93 124 135 126 93 83 66 60 57 48 81 99 82 67 49 245 256 253 252 260 258 268 265 274 269 267 264 238 255 268 245 239 252 270 283 291 307 308 334
57 1 340 337 355 357 28 32 48 81 100 115 104 93 76 78 76 68 55 31 61 94 85 68 64 43 338 292 276 269 270 277 274 277 279 278 264 240 248 247 227 234 253 260 263 277 289 293 297
5 360 337 336 353 6 23 32 40 59 87 98 91 82 67 67 60 58 56 88 105 107 72 86 67 55 19 337 297 281 278 257 281 295 301 300 270 237 250 260 246 246 250 255 254 264 269 282 294
28 7 353 352 18 31 37 40 64 59 79 88 93 92 82 75 68 64 66 55 187 185 107 103 89 72 46 4 358 294 271 284 302 314 290 325 274 247 257 255 242 242 253 255 252 258 260 276 287
22 10 7 15 26 39 52 57 59 62 86 99 99 93 88 77 64 64 59 62 78 97 120 59 19 7 54 32 23 307 305 314 317 326 326 310 299 270 260 258 258 261 263 260 257 261 274 281 288
27 354 38 350 1 27 20 39 60 78 89 93 90 88 81 71 69 52 58 62 43 85 89 62 41 13 324 214 352 352 335 327 326 326 306 315 306 297 289 278 262 260 265 268 267 269 270 277 283
112 336 333 341 339 14 47 64 60 69 82 84 86 86 75 64 70 59 25 25 69 79 93 72 49 30 5 355 3 4 356 346 334 326 319 317 315 292 291 278 275 267 266 282 282 276 277 275 275
45 319 326 331 3 60 76 71 67 77 78 88 81 84 104 108 109 104 299 335 9 58 64 53 36 24 24 24 19 17 16 3 343 326 316 301 305 310 327 296 263 273 283 296 289 285 280 278 271
258 38 300 273 27 61 81 66 56 85 96 69 75 86 87 84 122 143 209 239 237 36 30 56 55 45 35 26 16 5 3 360 349 340 332 323 315 326 329 312 326 317 309 303 292 290 292 293 295
135 299 228 274 260 40 59 53 44 58 64 53 49 60 52 56 92 212 236 226 217 272 315 31 42 29 15 8 357 351 341 342 341 337 331 325 314 313 312 307 308 311 308 298 292 293 295 293 289
298 297 278 258 229 258 272 292 160 350 15 11 5 349 341 343 312 289 281 280 272 268 304 349 24 28 9 5 4 348 354 334 324 314 332 332 319 297 288 283 285 293 297 290 295 294 285 293 292
253 257 268 247 227 306 58 295 130 317 333 340 339 327 317 320 317 293 280 285 316 341 324 326 7 11 16 14 8 360 349 335 340 11 341 359 346 316 275 269 265 268 279 283 294 285 299 306 312
220 261 234 237 211 300 243 282 310 242 310 338 342 339 343 342 324 301 305 311 349 7 351 336 350 339 349 353 358 359 346 12 360 358 2 1 2 342 288 248 257 283 278 279 301 304 302 305 307
238 217 25 337 312 269 49 131 312 64 304 310 319 324 338 345 339 337 306 302 344 360 355 335 334 337 307 333 354 22 4 358 354 347 346 350 357 4 47 72 85 40 52 296 300 299 300 302 307
226 216 288 295 272 272 152 34 263 349 307 301 311 310 330 327 347 351 326 297 313 341 354 334 359 333 293 328 345 315 323 341 340 340 339 348 357 11 32 51 15 306 305 294 313 295 303 302 303
254 219 223 299 291 329 336 221 278 324 322 302 293 299 319 313 319 323 325 313 313 338 354 6 355 309 296 327 335 329 310 327 332 333 334 336 339 350 353 341 324 313 300 297 297 299 300 303 306
219 233 230 244 273 295 237 304 320 266 246 315 289 305 321 324 336 342 347 342 334 336 353 3 360 331 296 312 318 312 318 322 322 326 324 325 322 327 320 305 296 297 298 294 290 287 289 292 299
213 225 240 252 240 272 280 293 274 274 302 289 285 292 338 27 56 27 17 12 5 338 315 330 327 324 309 305 299 296 299 302 307 314 319 318 317 314 310 307 303 302 300 297 297 299 298 297 299
225 215 203 212 243 272 285 286 284 315 286 281 281 284 291 324 3 6 5 357 345 315 303 302 305 289 291 304 307 307 303 302 306 309 309 312 310 307 309 311 309 306 303 302 302 304 303 300 297
224 227 220 225 251 247 247 262 311 263 275 287 275 289 294 297 307 324 333 329 324 304 283 283 285 292 302 306 309 308 305 299 303 305 310 310 308 303 302 302 300 300 303 305 305 304 302 301 299